YAOGAN-10

Last updated on Mon Sep 07 2026 00:02:45 GMT+0000 (Coordinated Universal Time)

1 36834U 10038A 26249.66575266 .00001038 00000+0 12632-3 0 9990 2 36834 97.8968 272.4225 0001525 86.8417 30.6942 14.85559934869307
UTC large
Height (km)
Speed (km/s)
/
Latitude / Longitude
Inclination (degrees)
Orbital Period (minutes)
Azimuth
Elevation
Range (km)
Doppler Factor

Next 0 passes for location: London (51.5072 / 0.1276)

No passes found over London.
YAOGAN-10